Location: *
(46.3500°N, 10.9000°E)
Time: 11:40:36
(UTC+00:00)

Tiangong - Visible Passes

Search period start: 09 August 2022 00:00
Search period end: 19 August 2022 00:00
Orbit: 379 x 387 km, 41.5° (Epoch: 08 August)

Date Brightness Start Highest point End Pass type
(mag) Time Alt. Az. Time Alt. Az. Time Alt. Az.
09 Aug -0.9 02:43:05 23° SSW 02:43:17 23° SSW 02:45:52 10° SE visible
10 Aug -0.1 03:18:37 11° SW 03:19:27 12° SSW 03:20:48 10° S visible
15 Aug -0.1 19:40:45 10° SSW 19:41:51 14° S 19:41:51 14° S visible
16 Aug -0.1 20:15:58 10° SW 20:17:07 18° SSW 20:17:07 18° SSW visible
17 Aug -0.6 19:16:05 10° SSW 19:18:28 20° SSE 19:19:55 15° SE visible
17 Aug 0.7 20:51:56 10° WSW 20:52:06 11° WSW 20:52:06 11° WSW visible
18 Aug -1.2 19:51:46 10° SW 19:54:34 30° S 19:54:43 30° SSE visible
